This is the latest recevied weather packets stored in our database for station/object W5HKR. If no packets are shown the sender has not sent any weather packets the latest 10 day(s).
| Time | Temp. | Humidity | Pressure | Rain* | Wind** | Luminosity | Snow |
|---|---|---|---|---|---|---|---|
| 1777630401 | 18.33° C | 91% | 990.6 hPa | 13.21 mm | - | - | - |
| 1777630232 | 18.33° C | 91% | 990.6 hPa | 13.21 mm | - | - | - |
| 1777630100 | 16.67° C | 97% | 982.7 hPa | 12.95 mm | - | - | - |
| 1777629801 | 18.33° C | 91% | 990.6 hPa | 12.95 mm | - | - | - |
| 1777629501 | 18.33° C | 91% | 990.6 hPa | 12.95 mm | - | - | - |
| 1777629202 | 16.67° C | 97% | 982.2 hPa | 12.7 mm | - | - | - |
| 1777629153 | 16.67° C | 97% | 982.7 hPa | 12.45 mm | - | - | - |
| 1777628902 | 18.33° C | 91% | 990.6 hPa | 11.68 mm | - | - | - |
| 1777628601 | 18.33° C | 91% | 990.6 hPa | 9.4 mm | - | - | - |
| 1777628300 | 18.33° C | 91% | 990.6 hPa | 7.87 mm | - | - | - |
| 1777628073 | 18.33° C | 91% | 990.6 hPa | 7.87 mm | - | - | - |
| 1777628003 | 18.33° C | 91% | 990.6 hPa | 7.37 mm | - | - | - |
| 1777627401 | 18.33° C | 91% | 990.6 hPa | 3.3 mm | - | - | - |
| 1777626992 | 16.67° C | 97% | 982.7 hPa | 2.03 mm | - | - | - |
| 1777626501 | 16.67° C | 97% | 982.3 hPa | 2.54 mm | - | - | - |
| 1777626201 | 16.67° C | 97% | 982.1 hPa | 4.83 mm | - | - | - |
| 1777625902 | 16.67° C | 97% | 982.3 hPa | 6.6 mm | - | - | - |
| 1777625602 | 16.67° C | 97% | 982.5 hPa | 7.11 mm | - | - | - |
| 1777625303 | 16.67° C | 97% | 982.4 hPa | 7.62 mm | - | - | - |
| 1777625003 | 16.67° C | 97% | 981.8 hPa | 7.87 mm | - | - | - |
| 1777624832 | 16.67° C | 97% | 982.4 hPa | 7.87 mm | - | - | - |
| 1777624403 | 18.33° C | 91% | 990.6 hPa | 7.87 mm | - | - | - |
| 1777624101 | 18.33° C | 91% | 990.6 hPa | 7.62 mm | - | - | - |
| 1777623802 | 18.33° C | 91% | 990.6 hPa | 7.37 mm | - | - | - |
| 1777623753 | 16.67° C | 97% | 982.7 hPa | 7.37 mm | - | - | - |
* Rain latest hour (hover to see other rain measurements)
** Current wind speed in m/s (hover to see current wind gust speed)